Weather History for Springfield, OH

Change the Weather History Date:

Wednesday, January 2, 2013

  Actual Average (KDAY) Record (KDAY)
Temperature  
Mean Temperature 10 °F 28 °F  
Max Temperature 18 °F 35 °F 61 °F (1916)
Min Temperature 3 °F 21 °F -5 °F (1898)
Degree Days  
Heating Degree Days 54 37  
Month to date heating degree days 74  
Since 1 July heating degree days 2233  
Cooling Degree Days 0 0  
Month to date cooling degree days 0  
Year to date cooling degree days 0  
Moisture  
Dew Point 9 °F    
Average Humidity 87    
Maximum Humidity 93    
Minimum Humidity 74    
Precipitation  
Precipitation 0.00 in 0.10 in 0.97 in (1996)
Month to date precipitation 0.20  
Year to date precipitation 0.20  
Snow  
Snow 0.00 in 0.30 in 8.40 in (1996)
Month to date snowfall 0.5  
Since 1 July snowfall 6.0  
Snow Depth -    
Sea Level Pressure  
Sea Level Pressure 30.22 in    
Wind  
Wind Speed 3 mph (SW)    
Max Wind Speed 7 mph    
Max Gust Speed -    
Visibility 3 miles    
Events Fog    
T = Trace of Precipitation, MM = Missing Value Source: NWS Daily Summary

Daily Weather History Graph

Daily Weather History Graph

Search for Another Location

Airport:

Trip Planner

Search our weather history database for the weather conditions in past years. The results will help you decide how hot, cold, wet, or windy it might be!

Date:

Astronomy

Jan. 02, 2013 Rise Set
Actual Time 7:56 AM EST 5:22 PM EST
Civil Twilight 7:26 AM EST 5:52 PM EST
Nautical Twilight 6:52 AM EST 6:26 PM EST
Astronomical Twilight 6:20 AM EST 6:59 PM EST
Moon 10:53 PM EST (1/2) 10:38 AM EST (1/2)
Length of Visible Light 10h 26m
Length of Day
9h 25m
Waning Gibbous, 75% of the Moon is Illuminated
Jan 2
Waning Gibbous
Jan 4
Last Quarter
Jan 11
New
Jan 18
First Quarter
Jan 26
Full

Hourly Weather History & Observations

Time (EST) Temp. Windchill Dew Point Humidity Pressure Visibility Wind Dir Wind Speed Gust Speed Precip Events Conditions
12:56 AM 14.0 °F 5.1 °F 11.1 °F 88% 30.17 in 5.0 mi SW 5.8 mph - N/A   Mostly Cloudy
1:17 AM 14.0 °F 6.5 °F 10.4 °F 86% 30.12 in 5.0 mi SW 4.6 mph - N/A   Partly Cloudy
1:56 AM 15.1 °F 7.7 °F 12.0 °F 88% 30.16 in 5.0 mi SSW 4.6 mph - N/A   Partly Cloudy
2:56 AM 13.1 °F 5.4 °F 10.0 °F 88% 30.18 in 4.0 mi WSW 4.6 mph - N/A   Clear
3:56 AM 15.1 °F 5.2 °F 13.1 °F 92% 30.20 in 3.0 mi West 6.9 mph - N/A   Clear
4:07 AM 14.0 °F 5.1 °F 12.2 °F 93% 30.15 in 2.5 mi WNW 5.8 mph - N/A   Clear
4:19 AM 14.0 °F 5.1 °F 12.2 °F 93% 30.15 in 2.0 mi West 5.8 mph - N/A   Scattered Clouds
4:32 AM 14.0 °F 3.9 °F 10.4 °F 86% 30.14 in 1.8 mi WNW 6.9 mph - N/A   Mostly Cloudy
4:46 AM 14.0 °F - 12.2 °F 93% 30.14 in 2.0 mi Calm Calm - N/A   Overcast
4:56 AM 14.0 °F - 11.1 °F 88% 30.20 in 1.5 mi Calm Calm - N/A   Overcast
5:08 AM 14.0 °F - 10.4 °F 86% 30.15 in 1.2 mi Calm Calm - N/A   Overcast
5:16 AM 14.0 °F - 10.4 °F 86% 30.15 in 1.0 mi Calm Calm - N/A   Overcast
5:27 AM 12.2 °F - 10.4 °F 92% 30.15 in 0.8 mi Calm Calm - N/A   Overcast
5:56 AM 12.0 °F - 10.0 °F 92% 30.21 in 0.5 mi Calm Calm - N/A Fog Light Freezing Fog
6:27 AM 10.4 °F - 8.6 °F 92% 30.15 in 0.2 mi Calm Calm - N/A Fog Light Freezing Fog
6:49 AM 10.4 °F - 6.8 °F 85% 30.16 in 0.2 mi Calm Calm - N/A Fog Light Freezing Fog
6:56 AM 11.1 °F - 8.1 °F 87% 30.21 in 0.2 mi Calm Calm - N/A Fog Light Freezing Fog
7:56 AM 7.2 °F - 3.0 °F 83% 30.23 in 0.2 mi Calm Calm - N/A Fog Light Freezing Fog
8:56 AM 4.1 °F - 0.1 °F 84% 30.25 in 0.2 mi Calm Calm - N/A Fog Light Freezing Fog
9:35 AM 3.2 °F - 1.4 °F 92% 30.21 in 0.2 mi Calm Calm - N/A Fog Light Freezing Fog
9:56 AM 6.1 °F - 3.0 °F 87% 30.28 in 0.2 mi Calm Calm - N/A Fog Light Freezing Fog
10:23 AM 8.6 °F - 5.0 °F 85% 30.23 in 0.8 mi Calm Calm - N/A   Overcast
10:28 AM 8.6 °F - 6.8 °F 92% 30.23 in 1.2 mi Calm Calm - N/A   Overcast
10:56 AM 13.1 °F - 10.0 °F 88% 30.30 in 1.2 mi Calm Calm - N/A   Clear
11:07 AM 12.2 °F 6.1 °F 10.4 °F 92% 30.23 in 2.0 mi WNW 3.5 mph - N/A   Clear
11:20 AM 14.0 °F 8.2 °F 10.4 °F 86% 30.24 in 3.0 mi West 3.5 mph - N/A   Clear
11:56 AM 16.2 °F - 14.0 °F 91% 30.28 in 4.0 mi Calm Calm - N/A   Clear
12:56 PM 18.1 °F - 15.1 °F 88% 30.26 in 5.0 mi Calm Calm - N/A   Clear
1:56 PM 17.1 °F 10.0 °F 10.0 °F 74% 30.25 in 5.0 mi SE 4.6 mph - N/A   Haze
2:56 PM 17.1 °F 10.0 °F 10.0 °F 74% 30.25 in 4.0 mi ESE 4.6 mph - N/A   Haze
3:56 PM 17.1 °F 8.7 °F 10.0 °F 74% 30.25 in 4.0 mi ESE 5.8 mph - N/A   Haze
4:56 PM 16.2 °F 9.0 °F 9.1 °F 74% 30.25 in 5.0 mi SE 4.6 mph - N/A   Haze
5:56 PM 13.1 °F 5.4 °F 8.1 °F 80% 30.26 in 6.0 mi SE 4.6 mph - N/A   Haze
6:56 PM 10.0 °F - 7.2 °F 88% 30.28 in 5.0 mi Calm Calm - N/A   Clear
7:56 PM 11.1 °F - 8.1 °F 87% 30.28 in 4.0 mi Calm Calm - N/A   Clear
8:56 PM 9.1 °F - 6.1 °F 87% 30.30 in 4.0 mi Calm Calm - N/A   Clear
9:56 PM 9.1 °F - 6.1 °F 87% 30.29 in 5.0 mi Calm Calm - N/A   Clear
10:56 PM 5.0 °F - 1.0 °F 84% 30.27 in 4.0 mi Calm Calm - N/A   Clear
11:56 PM 5.0 °F - 2.1 °F 88% 30.27 in 2.0 mi Calm Calm - N/A   Clear